Regional Weather Roundup
Issued by NWS New Orleans/Baton Rouge, LA

Home | Current Version | Previous Version | Text Only | Print | Product List | Glossary On
Versions: 1 2 3 4 5 6 7 8 9 10 11 12 13 14 15 16 17 18 19 20 21 22 23 24 25 26 27 28 29 30 31 32 33 34 35 36 37 38 39 40 41 42 43 44 45 46 47 48 49 50
747
ASUS44 KLIX 312210
RWRLIX
NEW ORLEANS REGIONAL WEATHER ROUNDUP
NATIONAL WEATHER SERVICE NEW ORLEANS LA
500 PM CDT SUN AUG 31 2014

NOTE: "FAIR" INDICATES FEW OR NO CLOUDS BELOW 12,000 FEET WITH NO
      SIGNIFICANT WEATHER AND/OR OBSTRUCTIONS TO VISIBILITY.
      SKY/WX - SKY CONDITION AND SIGNIFICANT WEATHER.
      TMP - AIR TEMPERATURE.     DP    - DEWPOINT TEMPERATURE.
      RH  - RELATIVE HUMIDITY.   PRES  - PRESSURE.
      HI  - HEAT INDEX.          WCI   - WIND CHILL INDEX.

*  THESE STATIONS ARE NOT NWS OR FAA STATIONS AND ARE NOT UNDER
   NWS QUALITY CONTROL.

LAZ038-040-048-061>063-065>067-069-312300-
SOUTHEAST LOUISIANA

CITY           SKY/WX    TMP DP  RH WIND       PRES   REMARKS
N.O. AUDUBON     N/A     90  77  64 MISG        N/A  HX 102
N.O. INTL ARPT PTSUNNY   91  76  61 SE16      30.02F HX 103
N.O. LAKEFRONT SUNNY     90  73  57 SE15      30.03F HX  98
N.O. DOWNTOWN*   N/A     91  73  55 SE9G16    30.04S HX 100
SLIDELL        MOSUNNY   90  73  57 SE8       30.03F HX  98
BATON ROUGE    MOSUNNY   90  69  50 S9        30.01F
BOOTHVILLE     MOSUNNY   89  76  65 SE9       30.05S HX 100
BELLE CHASSE   PTSUNNY   90  75  61 E10       30.02S HX 100
BOGALUSA*        N/A     91  69  47 S9        30.05S HX  96
GALLIANO*      NOT AVBL
NEW ROADS*       N/A     90  74  57 S7        30.01F HX  99
GONZALES*      MOCLDY    91  76  61 SE7       30.01S HX 102
HAMMOND*       MOSUNNY   91  70  49 SE12      30.05S HX  97
HOUMA*         MOSUNNY   90  72  55 SE12      30.02F HX  96
PORT FOURCHON* NOT AVBL

$$

MSZ070-080>082-312300-
SOUTHERN MISSISSIPPI

CITY           SKY/WX    TMP DP  RH WIND       PRES   REMARKS
MCCOMB         PTSUNNY   89  67  47 S13       30.04S
GULFPORT       MOSUNNY   87  76  69 S8        30.04F HX  97
BILOXI         SUNNY     88  77  68 S12       30.05F HX 100
PASCAGOULA     PTSUNNY   89  76  65 SE13      30.05F HX 100
STENNIS ARPT*  MOSUNNY  N/A N/A N/A SE8       30.04F

$$

COASTAL OBSERVATIONS
LAKE AND NEARSHORE STATIONS

STATION/POSITION TIME  TEMP    WIND        PRES    WAVE
                       AIR SEA DIR/SP/G            HT/PER
                 (UTC) (F)     (DEG/KT/KT) (MB)    (FT/S)
PASCAGOULA       2200   89     170/  8/ 11 1017.3
WAVELAND YACHT   2200   85     150/  9/ 12 1016.8
GRAND ISLE       2200   87 84  140/  8/ 13 1017.8
SOUTHWEST PASS   2200   91 91  110/ 13/ 15 1017.6
NEW CANAL        2200   90 82  140/  4/ 11 1017.3
SHELL BEACH      2200   88 81  140/ 10/ 13 1017.1

OFFSHORE STATIONS

STATION/POSITION TIME  TEMP    WIND        PRES    WAVE
                       AIR SEA DIR/SP/G            HT/PER
                 (UTC) (F)     (DEG/KT/KT) (MB)    (FT/S)
64 S DAUPHIN ISL 2200   85     120/ 12       N/A

$$




USA.gov is the U.S. government's official web portal to all federal, state and local government web resources and services.